Tracking 35237 objects as of 4-Sep-2026
HD Live streaming from Space Station
objects crossing your sky now

STARLINK-36439

Track STARLINK-36439 now!
10-day predictions
STARLINK-36439 is classified as:


NORAD ID: 67624
Int'l Code: 2026-020H
Launch date: January 30, 2026
Source: United States (US)
Launch site: AIR FORCE EASTERN TEST RANGE (AFETR)
Your satellite tracking list
Your tracking list is empty




NASA's NSSDC Master Catalog

Two Line Element Set (TLE):
1 67624U 26020H   26247.32150541  .00009261  00000-0  34556-3 0  9991
2 67624  42.9963 210.9158 0000781 327.6078  32.4726 15.27585675 33433
Source of the keplerian elements: AFSPC